Home > Time Zones > World Clock > Weather > Italy > Milan > Past weeks

Flag for Italy Weather past 2 weeks in Milan, Italy

Now
82 °F

Scattered clouds.


Feels Like: 85 °F
Forecast: 68 / 80 °F
Wind: 3 mph from North

Location: Milan / Linate

Current Time: Aug 1, 2014 at 6:12:51 PM

Latest Report: Aug 1, 2014 at 5:20 PM


Visibility: N/A

Pressure: 29.80 "Hg

Humidity: 58%

Dew point: 66 °F

Location of MilanLocation

Historic Weather in Milan — Graph

°F

Milan temperature yesterday

Maximum temperature yesterday: 84 °F (at 5:20 PM)
Minimum temperature yesterday: 63 °F (at 5:20 AM)
Average temperature yesterday: 74 °F

Past Weeks' High & Low Weather Summary

 TemperatureHumidityPressure
High90 °F (Jul 17, 5:20 PM)100% (Jul 21, 11:20 PM)30.09 "Hg (Jul 21, 11:20 PM)
Low61 °F (Jul 29, 4:50 PM)41% (Jul 19, 3:50 PM)29.65 "Hg (Jul 30, 5:50 AM)
Average73 °F78%29.87 "Hg
* Reported Jul 17 4:20 PM — Aug 1 4:50 PM, Milan, Weather by CustomWeather, © 2014

Note: Actual official high and low records may vary slightly from our data, if they occured in-between our weather recording intervals... More about our weather records

Advertising

Milan weather history for previous 24 hours

 ConditionsComfort  
Time TempWeatherWind HumidityBarometerVisibility
4:50 PM
Aug 1
84 °FScattered clouds.3 mph58%29.80 "HgN/A
4:20 PM84 °FScattered clouds.3 mph55%29.80 "HgN/A
3:50 PM84 °FScattered clouds.2 mph58%29.80 "HgN/A
3:20 PM82 °FScattered clouds.5 mph62%29.80 "HgN/A
2:50 PM82 °FScattered clouds.2 mph62%29.83 "HgN/A
2:20 PM82 °FScattered clouds.5 mph62%29.83 "HgN/A
1:50 PM81 °FPartly sunny.5 mph62%29.83 "HgN/A
1:20 PM81 °FPartly sunny.5 mph66%29.83 "HgN/A
12:50 PM81 °FBroken clouds.6 mph62%29.83 "HgN/A
12:20 PM79 °FBroken clouds.6 mph65%29.86 "HgN/A
11:50 AM81 °FScattered clouds.3 mph66%29.86 "HgN/A
11:20 AM79 °FScattered clouds.6 mph70%29.86 "HgN/A
10:50 AM79 °FScattered clouds.3 mph70%29.86 "HgN/A
10:20 AM77 °FPartly sunny.3 mph74%29.86 "Hg5 mi
9:50 AM75 °FPartly sunny.5 mph78%29.86 "Hg5 mi
9:20 AM73 °FPartly sunny.3 mph83%29.86 "Hg4 mi
8:50 AM73 °FFog.2 mph83%29.86 "Hg3 mi
8:20 AM73 °FFog.2 mph83%29.86 "Hg3 mi
7:50 AM72 °FFog.2 mph94%29.83 "Hg3 mi
7:20 AM70 °FFog.2 mph100%29.83 "Hg3 mi
6:50 AM70 °FFog.No wind94%29.83 "Hg3 mi
6:20 AM68 °FFog.2 mph100%29.83 "Hg3 mi
5:50 AM70 °FPassing clouds.1 mph94%29.83 "Hg5 mi
5:20 AM70 °FPassing clouds.1 mph94%29.83 "HgN/A
4:50 AM70 °FPassing clouds.2 mph88%29.83 "HgN/A
4:20 AM70 °FPassing clouds.3 mph88%29.83 "HgN/A
3:50 AM72 °FPassing clouds.3 mph83%29.83 "HgN/A
3:20 AM72 °FPassing clouds.3 mph88%29.86 "HgN/A
2:50 AM72 °FClear.3 mph88%29.86 "Hg10 mi
2:20 AM72 °FPassing clouds.3 mph88%29.86 "HgN/A
1:50 AM72 °FPassing clouds.5 mph88%29.86 "HgN/A
1:20 AM72 °FClear.6 mph88%29.86 "Hg10 mi
12:50 AM72 °FClear.5 mph88%29.86 "Hg10 mi
12:20 AM73 °FClear.6 mph83%29.83 "Hg10 mi
11:50 PM
Jul 31
73 °FClear.5 mph83%29.83 "Hg10 mi
11:20 PM73 °FPassing clouds.5 mph83%29.83 "HgN/A
10:50 PM75 °FClear.5 mph78%29.83 "Hg10 mi
10:20 PM75 °FPassing clouds.5 mph78%29.83 "HgN/A
9:50 PM77 °FPassing clouds.3 mph79%29.83 "HgN/A
9:20 PM77 °FPassing clouds.5 mph79%29.80 "HgN/A
8:50 PM79 °FPassing clouds.5 mph70%29.80 "HgN/A
8:20 PM79 °FPassing clouds.5 mph70%29.80 "HgN/A
7:50 PM81 °FPassing clouds.6 mph66%29.80 "HgN/A
7:20 PM82 °FPassing clouds.7 mph62%29.80 "HgN/A
6:50 PM82 °FPassing clouds.6 mph58%29.77 "HgN/A
6:20 PM84 °FPassing clouds.5 mph58%29.77 "HgN/A
Weather by CustomWeather, © 2014

See weather overviewHow to use our weather pages